QPF
0.01 0.01 0.01 0.01 0.01 0.01 0.00 0.00 0.00 0.01 0.01 0.00 0.01 0.01 0.01 0.02 0.02 0.01 0.01 0.01 0.02 0.02 0.03 0.03 0.02 0.03 0.05 0.05 0.05 0.05 0.06 0.07 0.09 0.10 0.11 0.12 0.11 0.13 0.15 0.14 0.14 0.14 0.15
0.01 0.01 0.01 0.01 0.01 0.01 0.00 0.00 0.00 0.01 0.01 0.01 0.01 0.01 0.01 0.01 0.01 0.02 0.01 0.02 0.02 0.03 0.04 0.05 0.04 0.03 0.04 0.05 0.05 0.06 0.07 0.07 0.09 0.11 0.12 0.11 0.10 0.09 0.10 0.10 0.10 0.11 0.12
0.01 0.02 0.02 0.01 0.01 0.01 0.00 0.00 0.01 0.01 0.01 0.01 0.01 0.01 0.01 0.01 0.01 0.01 0.02 0.02 0.02 0.03 0.05 0.07 0.07 0.05 0.04 0.04 0.05 0.08 0.09 0.09 0.10 0.10 0.12 0.11 0.11 0.09 0.08 0.08 0.08 0.08 0.09
0.01 0.01 0.01 0.01 0.01 0.01 0.00 0.01 0.01 0.01 0.01 0.01 0.01 0.01 0.01 0.01 0.01 0.01 0.01 0.01 0.01 0.02 0.03 0.04 0.05 0.07 0.06 0.05 0.04 0.04 0.05 0.06 0.07 0.08 0.09 0.09 0.09 0.08 0.06 0.06 0.07 0.07 0.07
0.01 0.01 0.01 0.01 0.01 0.01 0.01 0.00 0.01 0.01 0.01 0.01 0.01 0.01 0.01 0.00 0.01 0.01 0.01 0.01 0.01 0.01 0.01 0.01 0.02 0.02 0.03 0.03 0.03 0.04 0.03 0.03 0.04 0.06 0.07 0.06 0.06 0.06 0.05 0.05 0.05 0.06 0.05
0.01 0.01 0.01 0.01 0.01 0.01 0.01 0.01 0.01 0.02 0.02 0.02 0.02 0.01 0.00 0.00 0.00 0.00 0.01 0.01 0.01 0.01 0.01 0.01 0.01 0.01 0.01 0.01 0.02 0.03 0.04 0.04 0.03 0.04 0.05 0.05 0.05 0.04 0.04 0.04 0.05 0.05 0.05
0.02 0.02 0.02 0.02 0.01 0.01 0.01 0.02 0.02 0.02 0.02 0.02 0.02 0.02 0.01 0.00 0.00 0.00 0.00 0.02 0.01 0.01 0.01 0.01 0.01 0.01 0.01 0.01 0.01 0.01 0.02 0.04 0.05 0.05 0.06 0.06 0.06 0.06 0.06 0.06 0.05 0.05 0.05
0.04 0.03 0.03 0.02 0.01 0.01 0.02 0.02 0.02 0.02 0.02 0.02 0.02 0.02 0.02 0.00 0.00 0.00 0.00 0.01 0.01 0.01 0.01 0.02 0.01 0.01 0.01 0.01 0.01 0.01 0.01 0.02 0.03 0.04 0.06 0.08 0.08 0.08 0.08 0.07 0.06 0.05 0.05
0.04 0.03 0.03 0.02 0.02 0.02 0.02 0.03 0.02 0.02 0.02 0.02 0.02 0.02 0.02 0.01 0.01 0.01 0.01 0.02 0.02 0.02 0.01 0.01 0.01 0.01 0.01 0.01 0.02 0.02 0.02 0.03 0.04 0.06 0.07 0.08 0.09 0.08 0.07 0.07 0.07 0.06 0.07
0.03 0.02 0.02 0.02 0.02 0.02 0.03 0.03 0.02 0.03 0.03 0.02 0.02 0.01 0.01 0.01 0.01 0.01 0.02 0.02 0.02 0.02 0.02 0.01 0.01 0.02 0.02 0.02 0.03 0.03 0.03 0.03 0.03 0.04 0.06 0.07 0.06 0.07 0.06 0.06 0.06 0.06 0.06
0.02 0.02 0.02 0.02 0.01 0.01 0.02 0.02 0.02 0.02 0.03 0.03 0.02 0.02 0.01 0.01 0.01 0.01 0.02 0.02 0.02 0.02 0.02 0.01 0.01 0.02 0.02 0.02 0.04 0.04 0.03 0.03 0.04 0.04 0.04 0.05 0.05 0.05 0.04 0.04 0.04 0.05 0.04
0.02 0.03 0.03 0.02 0.01 0.01 0.02 0.02 0.02 0.03 0.03 0.03 0.03 0.04 0.03 0.02 0.01 0.01 0.02 0.02 0.01 0.02 0.02 0.02 0.02 0.02 0.02 0.03 0.03 0.04 0.03 0.04 0.04 0.04 0.05 0.05 0.04 0.04 0.04 0.03 0.03 0.02 0.02
0.03 0.03 0.02 0.01 0.01 0.01 0.01 0.02 0.02 0.03 0.03 0.02 0.02 0.04 0.03 0.02 0.01 0.02 0.02 0.02 0.02 0.01 0.01 0.01 0.01 0.02 0.02 0.02 0.04 0.04 0.04 0.04 0.04 0.03 0.04 0.04 0.04 0.03 0.02 0.02 0.02 0.02 0.01
0.04 0.03 0.02 0.01 0.01 0.01 0.01 0.01 0.01 0.02 0.03 0.02 0.01 0.02 0.02 0.02 0.02 0.03 0.03 0.03 0.02 0.01 0.01 0.01 0.01 0.02 0.01 0.01 0.02 0.03 0.03 0.03 0.03 0.02 0.02 0.02 0.02 0.02 0.02 0.02 0.02 0.02 0.01
0.05 0.04 0.03 0.02 0.01 0.01 0.01 0.01 0.01 0.01 0.01 0.01 0.01 0.01 0.01 0.02 0.02 0.03 0.05 0.04 0.02 0.02 0.01 0.01 0.02 0.02 0.02 0.02 0.02 0.02 0.02 0.02 0.02 0.02 0.02 0.01 0.01 0.01 0.01 0.01 0.01 0.01 0.01
0.05 0.04 0.03 0.02 0.01 0.01 0.00 0.00 0.00 0.00 0.00 0.00 0.00 0.00 0.01 0.01 0.01 0.02 0.03 0.04 0.03 0.02 0.02 0.02 0.02 0.02 0.02 0.01 0.01 0.01 0.01 0.01 0.01 0.01 0.02 0.02 0.02 0.01 0.01 0.01 0.00 0.00 0.00
0.03 0.03 0.02 0.02 0.01 0.01 0.01 0.01 0.01 0.00 0.00 0.00 0.00 0.00 0.00 0.00 0.00 0.01 0.02 0.02 0.02 0.02 0.02 0.02 0.02 0.01 0.01 0.01 0.00 0.00 0.00 0.00 0.00 0.01 0.01 0.01 0.00 0.00 0.01 0.01 0.00 0.00 0.00
0.02 0.01 0.01 0.01 0.01 0.01 0.01 0.01 0.01 0.01 0.01 0.00 0.00 0.00 0.00 0.01 0.01 0.01 0.01 0.01 0.01 0.01 0.01 0.01 0.01 0.01 0.00 0.00 0.00 0.00 0.00 0.00 0.00 0.00 0.01 0.01 0.01 0.00 0.01 0.00 0.00 0.01 0.01
0.01 0.01 0.01 0.01 0.01 0.00 0.00 0.01 0.00 0.00 0.00 0.00 0.00 0.00 0.01 0.01 0.01 0.01 0.01 0.01 0.01 0.01 0.01 0.01 0.01 0.00 0.00 0.00 0.00 0.00 0.00 0.00 0.00 0.00 0.00 0.01 0.01 0.01 0.00 0.00 0.00 0.00 0.00
0.00 0.00 0.00 0.01 0.01 0.01 0.00 0.01 0.01 0.00 0.00 0.00 0.00 0.00 0.00 0.01 0.01 0.01 0.01 0.01 0.01 0.01 0.01 0.01 0.00 0.00 0.00 0.00 0.00 0.00 0.00 0.00 0.00 0.00 0.00 0.00 0.00 0.00 0.00 0.00 0.00 0.00 0.00
0.00 0.00 0.00 0.01 0.01 0.01 0.01 0.01 0.01 0.00 0.00 0.00 0.00 0.00 0.00 0.01 0.01 0.00 0.00 0.00 0.00 0.00 0.00 0.00 0.00 0.00 0.00 0.00 0.00 0.00 0.00 0.00 0.00 0.00 0.00 0.00 0.00 0.00 0.00 0.00 0.00 0.00 0.00
0.00 0.00 0.00 0.01 0.01 0.01 0.00 0.01 0.01 0.01 0.01 0.01 0.00 0.00 0.00 0.00 0.00 0.00 0.00 0.00 0.00 0.00 0.00 0.00 0.00 0.00 0.00 0.00 0.00 0.00 0.00 0.00 0.00 0.00 0.00 0.00 0.00 0.00 0.00 0.00 0.00 0.00 0.00
0.00 0.00 0.00 0.00 0.00 0.00 0.00 0.01 0.00 0.00 0.00 0.00 0.00 0.00 0.00 0.00 0.00 0.00 0.00 0.00 0.00 0.00 0.00 0.00 0.00 0.00 0.00 0.00 0.00 0.00 0.00 0.00 0.00 0.00 0.00 0.00 0.00 0.00 0.00 0.00 0.00 0.00 0.00
0.00 0.00 0.00 0.00 0.00 0.00 0.00 0.00 0.00 0.00 0.00 0.00 0.00 0.00 0.00 0.00 0.00 0.00 0.00 0.00 0.00 0.00 0.00 0.00 0.00 0.00 0.00 0.00 0.00 0.00 0.00 0.00 0.00 0.00 0.00 0.00 0.00 0.00 0.00 0.00 0.00 0.00 0.00
0.00 0.00 0.00 0.00 0.00 0.00 0.00 0.00 0.00 0.00 0.00 0.00 0.00 0.00 0.00 0.00 0.00 0.00 0.00 0.00 0.00 0.00 0.00 0.00 0.00 0.00 0.00 0.00 0.00 0.00 0.00 0.00 0.00 0.00 0.00 0.00 0.00 0.00 0.00 0.00 0.00 0.00 0.00
0.00 0.00 0.00 0.00 0.00 0.00 0.00 0.00 0.00 0.00 0.00 0.00 0.00 0.00 0.00 0.00 0.00 0.00 0.00 0.00 0.00 0.00 0.00 0.00 0.00 0.00 0.00 0.00 0.00 0.00 0.00 0.00 0.00 0.00 0.00 0.00 0.00 0.00 0.00 0.00 0.00 0.00 0.00
MSLP
1021.28 1021.50 1021.70 1021.87 1021.99 1022.03 1021.99 1021.88 1021.70 1021.48 1021.24 1021.00 1020.80 1020.65 1020.58 1020.58 1020.64 1020.74 1020.85 1020.94 1020.97 1020.92 1020.77 1020.55 1020.29 1020.01 1019.80 1019.69 1019.72 1019.92 1020.27 1020.74 1021.29 1021.84 1022.34 1022.73 1022.99 1023.14 1023.19 1023.21 1023.24 1023.35 1023.58
1021.60 1021.83 1022.03 1022.18 1022.27 1022.27 1022.20 1022.04 1021.83 1021.59 1021.33 1021.10 1020.91 1020.79 1020.73 1020.75 1020.82 1020.91 1021.01 1021.07 1021.06 1020.96 1020.78 1020.53 1020.25 1019.97 1019.76 1019.67 1019.74 1019.99 1020.41 1020.96 1021.61 1022.28 1022.91 1023.44 1023.85 1024.12 1024.28 1024.37 1024.44 1024.53 1024.70
1022.01 1022.22 1022.40 1022.52 1022.57 1022.54 1022.42 1022.23 1022.00 1021.75 1021.50 1021.28 1021.11 1021.01 1020.98 1021.00 1021.07 1021.15 1021.22 1021.25 1021.20 1021.08 1020.87 1020.61 1020.33 1020.07 1019.88 1019.82 1019.93 1020.22 1020.68 1021.28 1021.98 1022.72 1023.42 1024.03 1024.52 1024.87 1025.09 1025.21 1025.29 1025.35 1025.45
1022.44 1022.63 1022.78 1022.86 1022.87 1022.80 1022.65 1022.45 1022.21 1021.96 1021.72 1021.53 1021.39 1021.31 1021.30 1021.32 1021.38 1021.44 1021.48 1021.47 1021.40 1021.25 1021.05 1020.79 1020.53 1020.31 1020.16 1020.14 1020.28 1020.59 1021.07 1021.68 1022.38 1023.11 1023.82 1024.44 1024.94 1025.31 1025.55 1025.68 1025.73 1025.75 1025.79
1022.84 1023.00 1023.10 1023.15 1023.13 1023.03 1022.86 1022.66 1022.43 1022.20 1022.00 1021.84 1021.73 1021.67 1021.66 1021.69 1021.73 1021.76 1021.76 1021.72 1021.63 1021.48 1021.28 1021.06 1020.84 1020.66 1020.56 1020.58 1020.74 1021.05 1021.51 1022.08 1022.73 1023.40 1024.06 1024.63 1025.10 1025.44 1025.66 1025.76 1025.79 1025.77 1025.75
1023.14 1023.25 1023.33 1023.34 1023.30 1023.19 1023.03 1022.84 1022.65 1022.46 1022.30 1022.18 1022.10 1022.07 1022.06 1022.08 1022.09 1022.09 1022.06 1021.99 1021.88 1021.73 1021.55 1021.37 1021.20 1021.07 1021.02 1021.07 1021.24 1021.52 1021.93 1022.43 1022.98 1023.56 1024.12 1024.61 1025.01 1025.30 1025.48 1025.55 1025.55 1025.50 1025.45
1023.30 1023.38 1023.42 1023.42 1023.37 1023.27 1023.15 1023.00 1022.85 1022.72 1022.62 1022.54 1022.50 1022.49 1022.49 1022.49 1022.47 1022.44 1022.37 1022.28 1022.16 1022.01 1021.85 1021.70 1021.58 1021.49 1021.48 1021.54 1021.69 1021.94 1022.27 1022.68 1023.12 1023.59 1024.03 1024.43 1024.75 1024.98 1025.11 1025.17 1025.15 1025.10 1025.02
1023.31 1023.36 1023.40 1023.40 1023.37 1023.30 1023.23 1023.14 1023.06 1023.00 1022.96 1022.94 1022.94 1022.95 1022.95 1022.93 1022.89 1022.82 1022.72 1022.60 1022.47 1022.32 1022.18 1022.05 1021.96 1021.90 1021.90 1021.96 1022.08 1022.27 1022.52 1022.82 1023.16 1023.51 1023.84 1024.15 1024.40 1024.59 1024.70 1024.75 1024.75 1024.70 1024.63
1023.23 1023.28 1023.31 1023.34 1023.34 1023.33 1023.32 1023.31 1023.31 1023.33 1023.35 1023.39 1023.43 1023.45 1023.45 1023.42 1023.36 1023.26 1023.13 1022.99 1022.83 1022.68 1022.54 1022.43 1022.35 1022.30 1022.29 1022.33 1022.41 1022.54 1022.71 1022.91 1023.14 1023.39 1023.64 1023.88 1024.08 1024.25 1024.36 1024.43 1024.45 1024.42 1024.37
1023.13 1023.19 1023.25 1023.31 1023.37 1023.42 1023.48 1023.55 1023.63 1023.72 1023.81 1023.89 1023.97 1024.01 1024.01 1023.97 1023.89 1023.77 1023.62 1023.45 1023.28 1023.12 1022.97 1022.85 1022.77 1022.71 1022.68 1022.69 1022.72 1022.78 1022.88 1023.00 1023.15 1023.32 1023.50 1023.69 1023.87 1024.04 1024.17 1024.26 1024.31 1024.32 1024.29
1023.08 1023.17 1023.27 1023.37 1023.49 1023.61 1023.75 1023.88 1024.03 1024.18 1024.32 1024.45 1024.55 1024.60 1024.61 1024.57 1024.47 1024.33 1024.17 1023.98 1023.79 1023.62 1023.46 1023.33 1023.23 1023.15 1023.10 1023.06 1023.05 1023.05 1023.08 1023.14 1023.22 1023.34 1023.48 1023.64 1023.81 1023.98 1024.13 1024.25 1024.32 1024.36 1024.35
1023.13 1023.26 1023.40 1023.56 1023.74 1023.92 1024.10 1024.30 1024.49 1024.68 1024.86 1025.02 1025.13 1025.19 1025.20 1025.16 1025.06 1024.91 1024.73 1024.54 1024.34 1024.15 1023.98 1023.84 1023.72 1023.62 1023.53 1023.46 1023.40 1023.36 1023.34 1023.35 1023.39 1023.46 1023.57 1023.71 1023.87 1024.04 1024.20 1024.33 1024.43 1024.48 1024.47
1023.29 1023.46 1023.66 1023.86 1024.07 1024.29 1024.52 1024.74 1024.96 1025.17 1025.37 1025.53 1025.65 1025.72 1025.73 1025.68 1025.58 1025.43 1025.25 1025.05 1024.85 1024.66 1024.48 1024.33 1024.19 1024.07 1023.96 1023.86 1023.78 1023.70 1023.65 1023.62 1023.63 1023.67 1023.75 1023.87 1024.01 1024.16 1024.31 1024.44 1024.53 1024.58 1024.57
1023.53 1023.75 1023.97 1024.20 1024.44 1024.67 1024.91 1025.14 1025.36 1025.57 1025.76 1025.92 1026.04 1026.11 1026.12 1026.07 1025.97 1025.82 1025.65 1025.45 1025.25 1025.06 1024.88 1024.72 1024.58 1024.45 1024.33 1024.22 1024.12 1024.03 1023.96 1023.91 1023.89 1023.90 1023.95 1024.04 1024.15 1024.27 1024.38 1024.48 1024.55 1024.58 1024.55
1023.80 1024.04 1024.28 1024.52 1024.75 1024.97 1025.19 1025.40 1025.61 1025.80 1025.98 1026.13 1026.24 1026.30 1026.31 1026.27 1026.17 1026.03 1025.86 1025.67 1025.48 1025.29 1025.11 1024.95 1024.81 1024.69 1024.57 1024.47 1024.37 1024.28 1024.20 1024.14 1024.10 1024.09 1024.11 1024.15 1024.22 1024.29 1024.36 1024.42 1024.45 1024.45 1024.40
1024.05 1024.29 1024.51 1024.73 1024.93 1025.12 1025.30 1025.48 1025.66 1025.83 1025.99 1026.13 1026.23 1026.29 1026.30 1026.26 1026.17 1026.03 1025.87 1025.68 1025.49 1025.31 1025.14 1024.99 1024.86 1024.75 1024.65 1024.57 1024.49 1024.41 1024.34 1024.28 1024.23 1024.20 1024.18 1024.18 1024.20 1024.22 1024.23 1024.24 1024.23 1024.20 1024.13
1024.23 1024.44 1024.62 1024.79 1024.94 1025.08 1025.22 1025.36 1025.51 1025.67 1025.81 1025.94 1026.05 1026.11 1026.12 1026.09 1026.00 1025.86 1025.70 1025.51 1025.32 1025.14 1024.97 1024.84 1024.72 1024.63 1024.57 1024.51 1024.46 1024.41 1024.36 1024.31 1024.26 1024.21 1024.17 1024.13 1024.10 1024.07 1024.04 1024.00 1023.95 1023.90 1023.82
1024.32 1024.48 1024.60 1024.70 1024.79 1024.88 1024.97 1025.08 1025.21 1025.36 1025.50 1025.64 1025.75 1025.82 1025.84 1025.81 1025.72 1025.59 1025.41 1025.22 1025.02 1024.84 1024.68 1024.55 1024.45 1024.39 1024.35 1024.33 1024.32 1024.31 1024.29 1024.25 1024.21 1024.16 1024.10 1024.03 1023.96 1023.89 1023.83 1023.76 1023.69 1023.62 1023.54
1024.34 1024.42 1024.47 1024.50 1024.53 1024.57 1024.62 1024.71 1024.84 1024.98 1025.14 1025.29 1025.42 1025.51 1025.54 1025.51 1025.42 1025.28 1025.09 1024.89 1024.68 1024.49 1024.32 1024.20 1024.12 1024.09 1024.08 1024.10 1024.13 1024.15 1024.17 1024.16 1024.13 1024.08 1024.01 1023.93 1023.84 1023.75 1023.67 1023.58 1023.50 1023.42 1023.34
1024.29 1024.30 1024.28 1024.24 1024.21 1024.21 1024.25 1024.33 1024.45 1024.61 1024.79 1024.97 1025.12 1025.22 1025.27 1025.24 1025.15 1024.99 1024.80 1024.58 1024.35 1024.15 1023.99 1023.87 1023.81 1023.80 1023.82 1023.88 1023.95 1024.01 1024.06 1024.08 1024.07 1024.03 1023.96 1023.88 1023.78 1023.68 1023.59 1023.50 1023.41 1023.34 1023.25
1024.21 1024.15 1024.07 1023.98 1023.91 1023.88 1023.91 1023.99 1024.13 1024.31 1024.51 1024.71 1024.88 1025.00 1025.05 1025.02 1024.92 1024.76 1024.55 1024.31 1024.08 1023.87 1023.71 1023.60 1023.56 1023.57 1023.62 1023.71 1023.82 1023.91 1023.99 1024.03 1024.04 1024.01 1023.96 1023.87 1023.78 1023.68 1023.58 1023.49 1023.41 1023.33 1023.25
1024.11 1024.00 1023.87 1023.75 1023.65 1023.61 1023.64 1023.73 1023.88 1024.07 1024.29 1024.50 1024.68 1024.80 1024.85 1024.82 1024.72 1024.54 1024.32 1024.08 1023.84 1023.64 1023.48 1023.39 1023.37 1023.40 1023.49 1023.61 1023.74 1023.86 1023.96 1024.03 1024.05 1024.03 1023.98 1023.90 1023.81 1023.71 1023.61 1023.52 1023.43 1023.35 1023.25
1023.97 1023.84 1023.69 1023.55 1023.45 1023.41 1023.43 1023.53 1023.68 1023.88 1024.09 1024.30 1024.47 1024.59 1024.62 1024.58 1024.47 1024.28 1024.06 1023.82 1023.60 1023.41 1023.27 1023.20 1023.21 1023.27 1023.38 1023.53 1023.68 1023.82 1023.94 1024.02 1024.05 1024.03 1023.98 1023.90 1023.80 1023.70 1023.60 1023.50 1023.40 1023.30 1023.18
1023.79 1023.65 1023.51 1023.38 1023.28 1023.24 1023.26 1023.35 1023.49 1023.67 1023.86 1024.04 1024.19 1024.27 1024.29 1024.23 1024.10 1023.92 1023.70 1023.48 1023.28 1023.11 1023.01 1022.98 1023.01 1023.10 1023.24 1023.41 1023.58 1023.74 1023.86 1023.94 1023.97 1023.96 1023.90 1023.82 1023.71 1023.60 1023.49 1023.37 1023.25 1023.12 1022.97
1023.54 1023.42 1023.30 1023.18 1023.09 1023.06 1023.07 1023.14 1023.25 1023.39 1023.54 1023.68 1023.77 1023.82 1023.81 1023.73 1023.59 1023.41 1023.21 1023.01 1022.84 1022.71 1022.65 1022.65 1022.72 1022.84 1023.01 1023.19 1023.38 1023.54 1023.67 1023.75 1023.78 1023.76 1023.70 1023.60 1023.49 1023.36 1023.23 1023.09 1022.94 1022.77 1022.58
1023.20 1023.11 1023.02 1022.92 1022.85 1022.81 1022.81 1022.85 1022.92 1023.01 1023.10 1023.17 1023.22 1023.22 1023.17 1023.06 1022.92 1022.75 1022.57 1022.40 1022.27 1022.19 1022.16 1022.20 1022.31 1022.46 1022.64 1022.84 1023.03 1023.20 1023.32 1023.40 1023.43 1023.40 1023.34 1023.23 1023.11 1022.97 1022.81 1022.64 1022.46 1022.26 1022.02
Thickness
5610 5610 5609 5609 5609 5609 5608 5608 5608 5608 5609 5611 5612 5614 5615 5616 5618 5619 5622 5624 5626 5628 5630 5632 5633 5633 5635 5636 5636 5636 5634 5632 5626 5621 5618 5615 5614 5613 5611 5611 5610 5609 5606
5602 5601 5600 5599 5599 5599 5599 5598 5598 5598 5600 5601 5602 5604 5606 5607 5608 5610 5612 5614 5616 5619 5621 5623 5625 5627 5628 5628 5628 5628 5626 5625 5621 5614 5609 5606 5604 5603 5602 5602 5601 5599 5596
5594 5593 5591 5590 5589 5589 5588 5588 5588 5589 5590 5591 5592 5594 5595 5596 5598 5600 5602 5605 5607 5608 5610 5613 5615 5617 5619 5620 5620 5620 5619 5617 5613 5608 5602 5598 5596 5595 5594 5593 5591 5588 5587
5586 5584 5581 5580 5579 5579 5578 5578 5579 5580 5580 5581 5582 5583 5585 5586 5588 5590 5593 5595 5596 5598 5600 5602 5605 5607 5609 5610 5611 5610 5609 5607 5604 5600 5596 5592 5589 5587 5587 5586 5583 5581 5580
5578 5576 5573 5571 5570 5569 5569 5569 5570 5570 5571 5571 5572 5573 5575 5576 5576 5578 5582 5585 5586 5588 5589 5591 5593 5594 5597 5600 5602 5601 5601 5599 5597 5594 5590 5587 5584 5582 5582 5581 5578 5576 5573
5569 5567 5564 5562 5561 5560 5559 5560 5560 5560 5561 5561 5562 5563 5563 5563 5561 5564 5569 5574 5576 5578 5579 5581 5583 5586 5587 5588 5590 5591 5592 5592 5591 5590 5587 5583 5580 5579 5577 5576 5575 5574 5570
5560 5558 5556 5554 5552 5552 5552 5551 5551 5551 5551 5552 5552 5552 5552 5550 5550 5553 5557 5563 5566 5567 5569 5573 5576 5576 5579 5581 5581 5581 5581 5581 5582 5584 5582 5579 5577 5575 5574 5572 5571 5570 5567
5552 5551 5548 5546 5545 5544 5543 5542 5542 5542 5542 5542 5542 5543 5543 5541 5541 5544 5548 5554 5556 5558 5560 5563 5565 5568 5570 5572 5575 5575 5575 5573 5574 5575 5574 5573 5571 5569 5568 5567 5565 5562 5560
5545 5543 5540 5539 5537 5536 5535 5533 5533 5533 5533 5534 5534 5534 5534 5533 5532 5535 5539 5546 5548 5550 5552 5553 5557 5559 5558 5562 5567 5568 5567 5565 5564 5565 5565 5564 5562 5561 5561 5562 5561 5561 5559
5538 5535 5533 5531 5529 5528 5526 5525 5525 5526 5526 5527 5526 5526 5526 5525 5524 5528 5532 5540 5541 5543 5544 5545 5544 5548 5550 5554 5559 5560 5560 5559 5559 5558 5556 5556 5555 5555 5555 5556 5559 5560 5559
5531 5528 5526 5524 5523 5521 5520 5519 5519 5520 5520 5520 5520 5519 5519 5518 5518 5520 5523 5531 5534 5537 5539 5539 5538 5538 5542 5546 5549 5552 5551 5553 5554 5554 5554 5553 5552 5552 5552 5553 5554 5557 5558
5525 5523 5520 5519 5518 5517 5515 5514 5514 5515 5515 5515 5515 5515 5515 5514 5512 5513 5515 5519 5524 5529 5531 5532 5530 5532 5535 5538 5542 5542 5545 5548 5551 5552 5552 5552 5552 5552 5551 5551 5551 5552 5552
5521 5518 5516 5514 5513 5512 5511 5510 5511 5511 5514 5514 5513 5512 5512 5511 5509 5508 5510 5513 5517 5521 5522 5521 5523 5526 5529 5533 5534 5537 5541 5547 5549 5549 5549 5550 5550 5549 5549 5549 5550 5550 5551
5518 5515 5513 5511 5510 5508 5508 5509 5509 5509 5509 5510 5510 5510 5510 5510 5510 5510 5512 5513 5512 5516 5519 5518 5521 5524 5528 5529 5533 5537 5541 5544 5546 5547 5547 5548 5549 5549 5550 5552 5553 5553 5555
5515 5512 5511 5510 5509 5506 5505 5503 5504 5502 5502 5503 5506 5507 5507 5507 5502 5500 5505 5511 5513 5515 5518 5522 5525 5528 5531 5533 5535 5537 5539 5542 5544 5546 5547 5548 5550 5551 5552 5553 5553 5555 5557
5514 5512 5511 5509 5508 5507 5506 5503 5496 5497 5496 5496 5496 5498 5500 5499 5499 5500 5502 5504 5507 5511 5517 5523 5525 5528 5530 5533 5535 5537 5539 5541 5544 5545 5547 5548 5550 5552 5553 5554 5556 5557 5558
5513 5511 5511 5511 5509 5508 5508 5508 5505 5499 5496 5496 5496 5496 5497 5497 5499 5500 5502 5505 5508 5511 5519 5523 5525 5528 5530 5533 5536 5539 5540 5542 5543 5546 5548 5550 5552 5553 5555 5556 5558 5559 5559
5514 5511 5511 5511 5511 5511 5510 5510 5510 5509 5507 5505 5499 5498 5498 5499 5500 5502 5504 5507 5514 5517 5523 5525 5527 5529 5532 5534 5537 5540 5542 5544 5546 5548 5550 5551 5553 5555 5557 5558 5559 5559 5560
5517 5516 5515 5515 5514 5513 5512 5513 5513 5512 5512 5511 5509 5506 5503 5504 5504 5506 5508 5514 5521 5524 5526 5528 5530 5532 5535 5537 5539 5541 5544 5546 5548 5550 5551 5552 5555 5556 5558 5560 5561 5558 5558
5519 5514 5515 5518 5518 5517 5516 5516 5515 5515 5515 5515 5515 5515 5514 5514 5516 5517 5517 5521 5524 5527 5529 5531 5533 5536 5538 5540 5543 5545 5547 5549 5550 5552 5554 5556 5557 5559 5560 5560 5562 5562 5563
5526 5522 5515 5520 5522 5522 5521 5520 5520 5520 5520 5520 5520 5519 5514 5521 5523 5524 5526 5527 5529 5532 5533 5535 5538 5540 5543 5545 5548 5550 5551 5553 5555 5556 5558 5559 5560 5560 5561 5562 5563 5564 5565
5531 5530 5528 5528 5527 5526 5526 5526 5526 5526 5526 5526 5527 5525 5519 5524 5529 5532 5533 5534 5536 5537 5538 5540 5544 5547 5548 5551 5552 5553 5556 5557 5558 5559 5560 5561 5562 5562 5564 5564 5565 5566 5566
5536 5535 5534 5533 5532 5528 5530 5532 5533 5533 5533 5534 5534 5535 5534 5535 5536 5538 5540 5541 5542 5543 5544 5545 5547 5551 5553 5553 5554 5556 5559 5561 5561 5561 5561 5562 5564 5565 5566 5566 5566 5566 5566
5543 5542 5540 5540 5539 5539 5539 5540 5540 5541 5541 5542 5542 5543 5544 5543 5544 5545 5547 5548 5549 5550 5551 5553 5554 5556 5557 5557 5558 5560 5562 5561 5561 5562 5561 5563 5564 5566 5567 5567 5567 5567 5567
5550 5548 5548 5547 5547 5547 5547 5547 5548 5548 5549 5549 5550 5551 5552 5553 5553 5554 5555 5555 5556 5558 5559 5559 5561 5562 5563 5563 5564 5565 5564 5563 5561 5562 5562 5564 5565 5566 5566 5567 5567 5568 5567
5558 5556 5555 5555 5554 5554 5554 5555 5555 5556 5556 5557 5558 5559 5559 5561 5562 5562 5563 5563 5564 5566 5566 5567 5568 5568 5569 5569 5569 5568 5567 5566 5564 5563 5562 5564 5566 5567 5567 5568 5568 5568 5568